EN

Hourly Weather Luhnovo

Today, 26 November, Thursday

Time Temperature Precipitation Wind Pressure Humidity
00:00 0°C° 0 mm 1 mps 750 mmHg 88%
01:00 0°C° 0 mm 1 mps 750 mmHg 88%
02:00 -1°C° 0 mm 1 mps 750 mmHg 89%
03:00 0°C° 0 mm 1 mps 750 mmHg 86%
04:00 -2°C° 0 mm 2 mps 749 mmHg 82%
05:00 -2°C° 0 mm 2 mps 749 mmHg 79%
06:00 -2°C° 0 mm 2 mps 748 mmHg 79%
07:00 -2°C° 0 mm 3 mps 748 mmHg 80%
08:00 -2°C° 0 mm 3 mps 748 mmHg 81%
09:00 -2°C° 0.5 mm 3 mps 748 mmHg 85%
10:00 -3°C° 0.5 mm 4 mps 747 mmHg 89%
11:00 -3°C° 0.5 mm 4 mps 747 mmHg 93%
12:00 -2°C° 0.5 mm 4 mps 746 mmHg 94%
13:00 -2°C° 0.5 mm 4 mps 746 mmHg 94%
14:00 -1°C° 0 mm 3 mps 745 mmHg 92%
15:00 0°C° 0.9 mm 3 mps 745 mmHg 94%
16:00 0°C° 0.9 mm 3 mps 744 mmHg 95%
17:00 +1°C° 0.9 mm 3 mps 744 mmHg 96%
18:00 +1°C° 0.2 mm 3 mps 743 mmHg 96%
19:00 +1°C° 0.2 mm 3 mps 743 mmHg 95%
20:00 +2°C° 0.2 mm 3 mps 743 mmHg 94%
21:00 +1°C° 0 mm 3 mps 742 mmHg 93%
22:00 +1°C° 0 mm 3 mps 742 mmHg 93%
23:00 0°C° 0 mm 3 mps 742 mmHg 93%

Tomorrow, 27 November, Friday

Time Temperature Precipitation Wind Pressure Humidity
00:00 0°C° 0.2 mm 3 mps 741 mmHg 94%
01:00 0°C° 0.2 mm 3 mps 741 mmHg 95%
02:00 -1°C° 0.2 mm 3 mps 741 mmHg 96%
03:00 -1°C° 0.8 mm 3 mps 741 mmHg 96%
04:00 0°C° 0.8 mm 3 mps 740 mmHg 97%
05:00 +1°C° 0.8 mm 2 mps 740 mmHg 97%
06:00 +1°C° 0.3 mm 2 mps 740 mmHg 97%
07:00 +1°C° 0.3 mm 2 mps 740 mmHg 98%
08:00 +2°C° 0.3 mm 1 mps 740 mmHg 98%
09:00 +2°C° 0.2 mm 1 mps 740 mmHg 98%
10:00 +3°C° 0.2 mm 1 mps 741 mmHg 98%
11:00 +3°C° 0.2 mm 1 mps 741 mmHg 98%
12:00 +3°C° 0.3 mm 1 mps 741 mmHg 98%
13:00 +3°C° 0.3 mm 1 mps 741 mmHg 98%
14:00 +3°C° 0.3 mm 1 mps 741 mmHg 98%
15:00 +3°C° 0.9 mm 1 mps 742 mmHg 98%
16:00 +3°C° 0.9 mm 1 mps 742 mmHg 98%
17:00 +2°C° 0.9 mm 1 mps 742 mmHg 98%
18:00 +2°C° 0.8 mm 1 mps 742 mmHg 98%
19:00 +1°C° 0.8 mm 2 mps 743 mmHg 98%
20:00 +1°C° 0.8 mm 2 mps 743 mmHg 98%
21:00 +1°C° 0.5 mm 2 mps 744 mmHg 98%
22:00 +1°C° 0.5 mm 2 mps 744 mmHg 98%
23:00 0°C° 0.5 mm 3 mps 745 mmHg 97%

Day after tomorrow, 28 November, Saturday

Time Temperature Precipitation Wind Pressure Humidity
00:00 -1°C° 0.3 mm 3 mps 745 mmHg 97%
01:00 -1°C° 0.3 mm 3 mps 746 mmHg 97%
02:00 -1°C° 0.3 mm 3 mps 747 mmHg 97%
03:00 -1°C° 0.3 mm 3 mps 747 mmHg 97%
04:00 -1°C° 0.3 mm 3 mps 747 mmHg 96%
05:00 -1°C° 0.3 mm 3 mps 748 mmHg 96%
06:00 -1°C° 0.1 mm 3 mps 748 mmHg 96%
07:00 -2°C° 0.1 mm 3 mps 749 mmHg 96%
08:00 -2°C° 0.1 mm 3 mps 750 mmHg 96%
09:00 -2°C° 0.1 mm 3 mps 750 mmHg 95%
10:00 -1°C° 0.1 mm 3 mps 751 mmHg 94%
11:00 -1°C° 0.1 mm 3 mps 751 mmHg 94%
12:00 -1°C° 0.1 mm 3 mps 752 mmHg 94%
13:00 -1°C° 0.1 mm 3 mps 752 mmHg 94%
14:00 -1°C° 0.1 mm 3 mps 753 mmHg 94%
15:00 -1°C° 0.1 mm 3 mps 753 mmHg 95%
16:00 -2°C° 0.1 mm 3 mps 753 mmHg 95%
17:00 -2°C° 0.1 mm 3 mps 754 mmHg 95%
18:00 -2°C° 0.1 mm 3 mps 754 mmHg 95%
19:00 -2°C° 0.1 mm 3 mps 755 mmHg 95%
20:00 -2°C° 0.1 mm 3 mps 755 mmHg 95%
21:00 -2°C° 0.1 mm 3 mps 755 mmHg 95%
22:00 -4°C° 0.1 mm 3 mps 756 mmHg 95%
23:00 -4°C° 0.1 mm 3 mps 756 mmHg 95%

29 November, Sunday

Time Temperature Precipitation Wind Pressure Humidity
00:00 -4°C° 0.1 mm 3 mps 756 mmHg 95%
01:00 -4°C° 0.1 mm 3 mps 757 mmHg 95%
02:00 -4°C° 0.1 mm 3 mps 757 mmHg 95%
03:00 -4°C° 0 mm 3 mps 757 mmHg 95%
04:00 -4°C° 0 mm 3 mps 757 mmHg 95%
05:00 -4°C° 0 mm 3 mps 757 mmHg 95%
06:00 -4°C° 0 mm 3 mps 757 mmHg 94%
07:00 -4°C° 0 mm 3 mps 758 mmHg 94%
08:00 -2°C° 0 mm 3 mps 758 mmHg 94%
09:00 -2°C° 0 mm 3 mps 758 mmHg 94%
10:00 -2°C° 0 mm 3 mps 758 mmHg 95%
11:00 -2°C° 0 mm 4 mps 758 mmHg 95%
12:00 -2°C° 0.2 mm 4 mps 757 mmHg 95%
13:00 0°C° 0.2 mm 3 mps 757 mmHg 96%
14:00 +1°C° 0.2 mm 3 mps 757 mmHg 96%
15:00 0°C° 0 mm 4 mps 757 mmHg 95%
16:00 0°C° 0 mm 4 mps 757 mmHg 95%
17:00 0°C° 0 mm 5 mps 757 mmHg 94%
18:00 0°C° 0 mm 4 mps 757 mmHg 93%
19:00 0°C° 0 mm 4 mps 757 mmHg 92%
20:00 -1°C° 0 mm 4 mps 757 mmHg 91%
21:00 0°C° 0 mm 4 mps 757 mmHg 92%
22:00 0°C° 0 mm 4 mps 757 mmHg 92%
23:00 0°C° 0 mm 4 mps 756 mmHg 92%

30 November, Monday

Time Temperature Precipitation Wind Pressure Humidity
00:00 0°C° 0 mm 4 mps 756 mmHg 92%
01:00 +1°C° 0 mm 4 mps 756 mmHg 92%
02:00 +1°C° 0 mm 4 mps 756 mmHg 92%
03:00 +1°C° 0 mm 4 mps 756 mmHg 92%
04:00 +1°C° 0 mm 4 mps 756 mmHg 93%
05:00 +1°C° 0 mm 4 mps 755 mmHg 93%
06:00 0°C° 0 mm 4 mps 755 mmHg 94%
07:00 0°C° 0 mm 5 mps 756 mmHg 95%
08:00 0°C° 0 mm 5 mps 756 mmHg 97%
09:00 0°C° 0 mm 5 mps 756 mmHg 95%
10:00 0°C° 0 mm 5 mps 756 mmHg 93%
11:00 0°C° 0 mm 5 mps 756 mmHg 91%
12:00 0°C° 0 mm 5 mps 755 mmHg 93%
13:00 0°C° 0 mm 5 mps 755 mmHg 94%
14:00 0°C° 0 mm 5 mps 755 mmHg 96%
15:00 0°C° 0.1 mm 5 mps 755 mmHg 95%
16:00 +1°C° 0.1 mm 4 mps 755 mmHg 95%
17:00 +1°C° 0.1 mm 4 mps 755 mmHg 94%
18:00 +1°C° 0.3 mm 4 mps 755 mmHg 95%
19:00 +1°C° 0.3 mm 4 mps 755 mmHg 95%
20:00 +1°C° 0.3 mm 4 mps 755 mmHg 95%
21:00 0°C° 0.2 mm 4 mps 755 mmHg 93%
22:00 0°C° 0.2 mm 4 mps 755 mmHg 91%
23:00 -1°C° 0.2 mm 4 mps 755 mmHg 89%

1 December, Tuesday

Time Temperature Precipitation Wind Pressure Humidity
00:00 -1°C° 0 mm 4 mps 756 mmHg 87%
01:00 -2°C° 0 mm 4 mps 756 mmHg 85%
02:00 -2°C° 0 mm 4 mps 756 mmHg 83%
03:00 -1°C° 0 mm 3 mps 756 mmHg 83%
04:00 -2°C° 0 mm 3 mps 756 mmHg 83%
05:00 -2°C° 0 mm 3 mps 757 mmHg 83%
06:00 -2°C° 0 mm 3 mps 757 mmHg 83%
07:00 -2°C° 0 mm 3 mps 757 mmHg 83%
08:00 -2°C° 0 mm 3 mps 757 mmHg 82%
09:00 -2°C° 0 mm 3 mps 757 mmHg 82%
10:00 -2°C° 0 mm 3 mps 757 mmHg 82%
11:00 -2°C° 0 mm 3 mps 757 mmHg 81%
12:00 -2°C° 0 mm 3 mps 757 mmHg 81%
13:00 -2°C° 0 mm 3 mps 757 mmHg 82%
14:00 -2°C° 0 mm 3 mps 757 mmHg 82%
15:00 -2°C° 0 mm 3 mps 757 mmHg 84%
16:00 -2°C° 0 mm 3 mps 757 mmHg 86%
17:00 -4°C° 0 mm 3 mps 758 mmHg 88%
18:00 -4°C° 0 mm 3 mps 758 mmHg 89%
19:00 -3°C° 0 mm 2 mps 758 mmHg 90%
20:00 -3°C° 0 mm 2 mps 758 mmHg 91%
21:00 -3°C° 0 mm 2 mps 758 mmHg 90%
22:00 -3°C° 0 mm 2 mps 758 mmHg 90%
23:00 -3°C° 0 mm 2 mps 758 mmHg 89%
Show more